AirNav   Pilot Hours Calculator
 
 1323 users online  

43K Marion Municipal Airport
Marion, Kansas, USA

GOING TO MARION?


FAA INFORMATION EFFECTIVE 08 OCTOBER 2020

Location

FAA Identifier: 43K
Lat/Long: 38-20-15.4000N 096-59-17.7000W
38-20.256667N 096-59.295000W
38.3376111,-96.9882500
(estimated)
Elevation: 1390 ft. / 424 m (estimated)
Variation: 07E (1985)
From city: 2 miles SE of MARION, KS
Time zone: UTC -5 (UTC -6 during Standard Time)
Zip code: 66861

Airport Operations

Airport use: Open to the public
Activation date: 12/1945
Control tower: no
ARTCC: KANSAS CITY CENTER
FSS: WICHITA FLIGHT SERVICE STATION
NOTAMs facility: ICT (NOTAM-D service available)
Attendance: UNATNDD
PHONE AVBL 24 HRS.
Wind indicator: yes
Segmented circle: no
Beacon: white-green (lighted land airport)
Operates sunset to sunrise.

Airport Communications

CTAF: 122.9

Nearby radio navigation aids

VOR radial/distance  VOR name  Freq  Var
FRIr183/(38.4)FORT RILEY VOR109.4006E

 
NDB name  Hdg/Dist  Freq  Var  ID
NEWTON033/21.228106EEWK . .-- -.-
HERINGTON195/22.940706EHRU .... .-. ..-

Airport Services

Fuel available: 100LL MOGAS
Parking: hangars and tiedowns
Airframe service: NONE
Powerplant service: NONE
Bottled oxygen: NONE
Bulk oxygen: NONE

Runway Information

Runway 17/35

Dimensions: 2573 x 40 ft. / 784 x 12 m
Surface: asphalt, in good condition
Runway edge lights: low intensity
Runway edge markings: RWY 35 ALIGNMENT NUMBERS FADED.
RUNWAY 17  RUNWAY 35
Latitude: 38-20.455545N38-20.031528N
Longitude: 096-59.227317W096-59.227317W
Elevation: 1382.0 ft.1378.0 ft.
Traffic pattern: leftleft
Runway heading: 173 magnetic, 180 true353 magnetic, 000 true
Markings: numbers only, in good conditionnumbers only, in good condition

Runway 3/21

Dimensions: 2745 x 95 ft. / 837 x 29 m
Surface: turf, in good condition
RY 03/21 IS SLIGHTLY ROUGH.
Runway edge markings: 03/21 THLDS & EDGES MKD WITH YELLOW PAINTED TIRES.
RUNWAY 3  RUNWAY 21
Traffic pattern: leftleft
Obstructions: 4 ft. fence
THE PROXIMITY OF THE FENCE TO THE RWY ESTABLISHES THE CONTROLLING OBSTRUCTION. THE 35' TO 40' TREES DIRECTLY BEHIND WOULD BE MORE OF A CONCERN FOR APPROACHING AIRCRAFT.
22 ft. pline, 735 ft. from runway, 170 ft. left of centerline, 33:1 slope to clear

Runway 13/31

Dimensions: 2722 x 50 ft. / 830 x 15 m
Surface: turf, in good condition
Runway edge markings: 13/31 THLD & EDGES MKD WITH YELLOW PAINTED TIRES.
RUNWAY 13  RUNWAY 31
Traffic pattern: leftleft
Obstructions: 4 ft. fence, 15 ft. from runwaynone

Runway 18/36

Dimensions: 2310 x 67 ft. / 704 x 20 m
Surface: turf, in good condition
Runway edge markings: RY 18/36 THLD DELINEATED WITH YELLOW PAINTED TIRES.
RUNWAY 18  RUNWAY 36
Latitude: 38-20.459450N38-20.079648N
Longitude: 096-59.352258W096-59.385003W
Elevation: 1380.0 ft.1378.0 ft.
Traffic pattern: leftleft
Runway heading: 177 magnetic, 184 true357 magnetic, 004 true
Obstructions: 4 ft. fence, 9 ft. from runway, 30 ft. left and right of centerline, 2:1 slope to clearnone

Airport Ownership and Management from official FAA records

Ownership: Publicly-owned
Owner: CITY OF MARION
208 EAST SANTA FE
MARION, KS 66861
Phone 620-382-3703
Manager: ROGER HOLTER
208 EAST SANTA FE
MARION, KS 66861
Phone 620-382-3703
MR.MAYFIELD IS CITY MGR. OF MARION KS.

Airport Operational Statistics

Aircraft based on the field: 17
Single engine airplanes: 16
Ultralights: 1
    
Aircraft operations: avg 25/day *
66% local general aviation
33% transient general aviation
<1% military
* for 12-month period ending 28 August 2019

Additional Remarks

A58-35 RWY 35 ROAD ABANDONED & IS GATED FM TRAFFIC. +4 FT FENCE; 70 FT FRM END OF RWY; BOTH SIDES OF RWY.
A58-17 +4' FENCE 5' FROM RWY END 30' L & R OF CNTRLEN; LOWERED AT RWY.
FOR CD CTC KANSAS CITY ARTCC AT 913-254-8508.

Instrument Procedures

There are no published instrument procedures at 43K.

Some nearby airports with instrument procedures:

KEWK - Newton City/County Airport (22 nm SW)
KHRU - Herington Regional Airport (23 nm N)
47K - Moundridge Municipal Airport (25 nm W)
KMPR - Mc Pherson Airport (33 nm W)
1K1 - Lloyd Stearman Field Airport (34 nm S)
 
Loc | Ops | Rwys | IFR | FBO | Links
Com | Nav | Svcs | Stats | Notes
Area around 43K (Marion Municipal Airport)
 
Road maps at: MapQuest Bing Google
 
Aerial photo
WARNING: Photo may not be current or correct
Aerial photo of 43K (Marion Municipal Airport)
Photo by Paul Hodson
Photo taken 21-Jan-2006
taken from a C182 from the northwest

Do you have a better or more recent aerial photo of Marion Municipal Airport that you would like to share? If so, please send us your photo.

 
Sectional chart

 
Airport distance calculator
Flying to Marion Municipal Airport? Find the distance to fly.

From to 43K

Sunrise and sunset
Times for 26-Oct-2020
 Local
(UTC-5)
 Zulu
(UTC)
Morning civil twilight07:2312:23
Sunrise07:5012:50
Sunset18:3423:34
Evening civil twilight19:0100:01

Current date and time
Zulu (UTC)  26-Oct-2020 21:57:28
Local (UTC-5)  26-Oct-2020 16:57:28
 
METAR
KEWK 
22nm SW 
262117Z AUTO 01014KT 10SM OVC013 M04/M06 A3033 RMK AO2 FZRANO
K1K1 
34nm S 
262135Z AUTO 01009G18KT 10SM OVC013 M03/M06 A3031 RMK AO2 T10351060
KEQA 
35nm S 
262135Z AUTO 02018KT 10SM OVC011 M01/M04 A3029 RMK AO2
KAAO 
37nm S 
262154Z AUTO 36015G22KT 10SM OVC016 M03/M07 A3032 RMK AO2 SLP284 T10281067
KEMP 
37nm E 
262153Z AUTO 36009KT 10SM BKN016 OVC075 M02/M06 A3033 RMK AO2 SLP287 T10221056
KBEC 
40nm S 
262135Z AUTO 01013KT OVC014 M03/M06 A3031 RMK AO2 T10331060 PWINO
K3AU 
40nm S 
262135Z AUTO 36012G19KT 10SM OVC011 M03/M05 A3032 RMK AO2
KSLN 
41nm NW 
262153Z 36014KT 10SM SCT026 SCT060 OVC080 M02/M08 A3040 RMK AO2 SLP309 T10171083
KFRI 
43nm N 
262141Z AUTO 01008KT 10SM BKN027 OVC075 M01/M08 A3038 RMK AO2 SLP299
K13K 
44nm SE 
262135Z AUTO 36015G20KT 10SM OVC013 M02/M05 A3031 RMK AO2 T10231046
TAF
KSLN 
41nm NW 
261727Z 2618/2718 36017G25KT P6SM -SN SCT020 OVC035 FM262100 36012KT 4SM -SN VCSH OVC040 FM270300 35008KT P6SM OVC045 FM270600 35006KT 6SM BR BKN040
KFRI 
43nm N 
261300Z 2613/2719 01010G20KT 4800 -SN OVC025 620259 QNH3031INS BECMG 2616/2617 01009KT 6000 -SN OVC015 620259 QNH3037INS BECMG 2622/2623 01006KT 8000 -SN OVC025 620259 QNH3037INS BECMG 2707/2708 36006KT 8000 -SN OVC010 620109 QNH3039INS BECMG 2716/2717 28006KT 9999 NSW FEW010 BKN020 620209 QNH3036INS TXM01/2619Z TNM04/2613Z
KHUT 
44nm W 
261727Z 2618/2718 01015G23KT P6SM -SN OVC025 FM262100 01013KT P6SM -FZDZSN VCSH OVC020 FM262300 01012KT P6SM -FZDZSN VCSH OVC015 FM270600 36009KT P6SM -SN VCSH OVC025 FM271000 36008KT P6SM VCSH BKN030
KIAB 
45nm S 
261814Z 2618/2724 02020G25KT 9000 -SN OVC012 620144 650545 QNH3032INS TEMPO 2618/2624 8000 -PL BECMG 2705/2706 36012KT 9999 NSW SCT007 BKN014 620144 650545 QNH3034INS TEMPO 2712/2715 9000 -FZDZ BECMG 2714/2715 36009KT 8000 -RASN BKN014 650149 QNH3034INS TEMPO 2715/2718 6000 -FZRAPL BECMG 2717/2718 02009KT 9000 -DZ SCT021 BKN030 620304 QNH3027INS BECMG 2720/2721 VRB06KT 9999 NSW BKN030 OVC040 510853 QNH3023INS TX01/2718Z TNM03/2621Z
KICT 
46nm SW 
261727Z 2618/2718 01015G23KT P6SM -SN OVC020 FM262000 01015G23KT P6SM -FZDZSN VCSH OVC020 FM270300 01011KT P6SM OVC025 FM270500 01011KT P6SM -FZDZ VCSH OVC045 FM271200 01012KT 6SM -FZRASN BR OVC045 FM271400 01009KT 5SM -FZRAPL BR OVC030
KMHK 
50nm N 
261740Z 2618/2718 01011G20KT P6SM VCSH OVC040 FM262000 02010KT P6SM BKN050
NOTAMs
Click for the latest NOTAMs
NOTAMs are issued by the DoD/FAA and will open in a separate window not controlled by AirNav.

 

 
 

Would you like to see your business listed on this page?

 If your business provides an interesting product or service to pilots, flight crews, aircraft, or users of the Marion Municipal Airport, you should consider listing it here.  To start the listing process, click on the button below
 
Add a business
 

Other Pages about Marion Municipal Airport

Update a link
 
Copyright © AirNav, LLC. All rights reserved. Privacy Policy  Contact